1332547233754,0.764939
1332547293754,0.768440
1332547353754,0.768727
1332547413754,0.763600
1332547473754,0.767756
1332547533754,0.767206
1332547593754,0.769867
1332547653754,0.767652
1332547713754,0.767654
1332547773754,0.767249
1332547833754,0.768878
1332547893754,0.768947
1332547953754,0.770215
1332548013754,0.765961
1332548073754,0.767066
1332548133754,0.765702
1332548193754,0.766935
1332548253754,0.765126
1332548313754,0.764692
1332548373754,0.766723
1332548433754,0.763151
1332548493754,0.765560
1332548553754,0.764292
1332548613754,0.761493
1332548673754,0.763923
1332548733754,0.767789
1332548793754,0.769331
1332548853754,0.764391
1332548913754,0.761613
1332548973754,0.756673
1332549033754,0.770369
1332549093754,0.767564
1332549153754,0.767114
1332549213754,0.763065
1332549273754,0.765944
1332549333754,0.767482
1332549393754,0.773137
1332549453754,0.766077
1332549513754,0.771162
1332549573754,0.768267
1332549633754,0.764534
1332549693754,0.761383
1332549753754,0.769279
1332549813754,0.768388
1332549873754,0.761254
1332549933754,0.763293
1332549993754,0.771961
1332550053754,0.772893
1332550113754,0.762897
1332550173754,0.762973
1332550233754,0.754335
1332550293754,0.763168
1332550353754,0.760839
1332550413754,0.762484
1332550473754,0.763963
1332550533754,0.758574
1332550593754,0.758811
1332550653754,0.770200
1332550713754,0.773230
1332550773754,0.761936
1332550833767,0.765617
1332550893767,0.759654
1332550953767,0.760617
1332551013767,0.762687
1332551073767,0.765475
1332551133767,0.768082
1332551193767,0.767376
1332551253767,0.765326
1332551313767,0.756955
1332551373767,0.763107
1332551433767,0.764419
1332551493767,0.762841
1332551553767,0.756779
1332551613767,0.761824
1332551673767,0.754040
1332551733767,0.766023
1332551793767,0.756807
1332551853767,0.759337
1332551913767,0.757866
1332551973767,0.755552
1332552033767,0.760326
1332552093767,0.762584
1332552153767,0.763829
1332552213767,0.764525
1332552273767,0.763855
1332552333767,0.759672
1332552393767,0.759027
1332552453767,0.770046
1332552513767,0.767595
1332552573767,0.762872
1332552633767,0.759854
1332552693767,0.766976
1332552753767,0.765074
1332552813767,0.765003
1332552873767,0.763267
1332552933767,0.758560
1332552993767,0.756457
1332553053767,0.763476
1332553113767,0.762587
1332553173767,0.764932
1332553233767,0.766423
1332553293767,0.769180
1332553353767,0.762150
1332553413767,0.760335
1332553473767,0.755335
1332553533767,0.760414
1332553593767,0.757101
1332553653767,0.764750
1332553713767,0.765677
1332553773767,0.764685
1332553833767,0.765214
1332553893767,0.761867
1332553953767,0.759062
1332554013767,0.762055
1332554073767,0.761489
1332554133767,0.760458
1332554193767,0.761491
1332554253767,0.765165
1332554313767,0.758504
1332554373767,0.767553
1332554433779,0.758369
1332554493779,0.757986
1332554553779,0.763350
1332554613779,0.757521
1332554673779,0.763963
1332554733779,0.767075
1332554793779,0.760717
1332554853779,0.762272
1332554913779,0.763561
1332554973779,0.758014
1332555033779,0.765418
1332555093779,0.759885
1332555153779,0.755533
1332555213779,0.758603
1332555273779,0.765477
1332555333779,0.765541
1332555393779,0.767151
1332555453779,0.765806
1332555513779,0.764168
1332555573779,0.763968
1332555633779,0.761762
1332555693779,0.770805
1332555753779,0.759813
1332555813779,0.763606
1332555873779,0.757753
1332555933779,0.763067
1332555993779,0.762962
1332556053779,0.761879
1332556113779,0.760884
1332556173779,0.766524
1332556233779,0.761348
1332556293779,0.764840
1332556353779,0.762987
1332556413779,0.764550
1332556473779,0.764293
1332556533779,0.766517
1332556593779,0.761693
1332556653779,0.757934
1332556713779,0.765040
1332556773779,0.759439
1332556833779,0.760607
1332556893779,0.762685
1332556953779,0.768921
1332557013779,0.767088
1332557073779,0.759476
1332557133779,0.769245
1332557193779,0.765635
1332557253779,0.764274
1332557313779,0.767442
1332557373779,0.768921
1332557433779,0.763723
1332557493779,0.761415
1332557553779,0.767961
1332557613779,0.769475
1332557673779,0.762711
1332557733779,0.762976
1332557793779,0.758541
1332557853779,0.765874
1332557913779,0.761448
1332557973779,0.762119
1332558033791,0.764890
1332558093791,0.761033
1332558153791,0.771675
1332558213791,0.761053
1332558273791,0.759082
1332558333791,0.764300
1332558393791,0.762352
1332558453791,0.767941
1332558513791,0.765696
1332558573791,0.764220
1332558633791,0.765293
1332558693791,0.765468
1332558753791,0.765479
1332558813791,0.765338
1332558873791,0.766277
1332558933791,0.759389
1332558993791,0.762849
1332559053791,0.765522
1332559113791,0.768199
1332559173791,0.769001
1332559233791,0.767173
1332559293791,0.765140
1332559353791,0.766774
1332559413791,0.765466
1332559473791,0.762516
1332559533791,0.765671
1332559593791,0.772983
1332559653791,0.767282
1332559713791,0.760802
1332559773791,0.764876
1332559833791,0.770571
1332559893791,0.765782
1332559953791,0.772009
1332560013791,0.759218
1332560073791,0.763989
1332560133791,0.763543
1332560193791,0.759546
1332560253791,0.761043
1332560313791,0.760114
1332560373791,0.764205
1332560433791,0.764275
1332560493791,0.772915
1332560553791,0.761741
1332560613791,0.761984
1332560673791,0.761793
1332560733791,0.768552
1332560793791,0.759296
1332560853791,0.760828
1332560913791,0.762837
1332560973791,0.769666
1332561033791,0.774350
1332561093791,0.766746
1332561153791,0.765563
1332561213791,0.764312
1332561273791,0.770802
1332561333791,0.762187
1332561393791,0.761981
1332561453791,0.770331
1332561513791,0.766997
1332561573791,0.765910
1332561633807,0.771422
1332561693807,0.763517
1332561753807,0.768320
1332561813807,0.763874
1332561873807,0.767143
1332561933807,0.762272
1332561993807,0.763156
1332562053807,0.763257
1332562113807,0.763918
1332562173807,0.762533
1332562233807,0.761472
1332562293807,0.765689
1332562353807,0.764951
1332562413807,0.766094
1332562473807,0.765874
1332562533807,0.767092
1332562593807,0.768594
1332562653807,0.761319
1332562713807,0.769573
1332562773807,0.772649
1332562833807,0.764117
1332562893807,0.770744
1332562953807,0.771280
1332563013807,0.777105
1332563073807,0.773747
1332563133807,0.775127
1332563193807,0.770930
1332563253807,0.770135
1332563313807,0.766642
1332563373807,0.763403
1332563433807,0.764819
1332563493807,0.767115
1332563553807,0.766427
1332563613807,0.772766
1332563673807,0.769384
1332563733807,0.773653
1332563793807,0.759372
1332563853807,0.765225
1332563913807,0.766316
1332563973807,0.772142
1332564033807,0.772126
1332564093807,0.764188
1332564153807,0.767204
1332564213807,0.768004
1332564273807,0.761424
1332564333807,0.763174
1332564393807,0.769726
1332564453807,0.767211
1332564513807,0.767410
1332564573807,0.767891
1332564633807,0.765958
1332564693807,0.761546
1332564753807,0.766739
1332564813807,0.767376
1332564873807,0.759694
1332564933807,0.759306
1332564993807,0.765570
1332565053807,0.770767
1332565113807,0.762503
1332565173807,0.758077
1332565233819,0.772878
1332565293819,0.762177
1332565353819,0.771166
1332565413819,0.768491
1332565473819,0.759292
1332565533819,0.769364
1332565593819,0.770620
1332565653819,0.766361
1332565713819,0.765055
1332565773819,0.758227
1332565833819,0.765638
1332565893819,0.767305
1332565953819,0.767944
1332566013819,0.763504
1332566073819,0.768920
1332566133819,0.763301
1332566193819,0.766129
1332566253819,0.765865
1332566313819,0.760337
1332566373819,0.765912
1332566433819,0.764729
1332566493819,0.768886
1332566553819,0.765349
1332566613819,0.763839
1332566673819,0.763444
1332566733819,0.768260
1332566793819,0.762677
1332566853819,0.767257
1332566913819,0.767006
1332566973819,0.769419
1332567033819,0.771004
1332567093819,0.758992
1332567153819,0.760112
1332567213819,0.760293
1332567273819,0.756495
1332567333819,0.759451
1332567393819,0.767166
1332567453819,0.766629
1332567513819,0.761143
1332567573819,0.767426
1332567633819,0.766308
1332567693819,0.775445
1332567753819,0.758770
1332567813819,0.766861
1332567873819,0.758661
1332567933819,0.770835
1332567993819,0.768908
1332568053819,0.766378
1332568113819,0.767390
1332568173819,0.757713
1332568233819,0.772141
1332568293819,0.767361
1332568353819,0.766683
1332568413819,0.769935
1332568473819,0.765048
1332568533819,0.762069
1332568593819,0.772070
1332568653819,0.763254
1332568713819,0.771682
1332568773819,0.769643
1332568833831,0.762457
1332568893831,0.763549
1332568953831,0.763674
1332569013831,0.763246
1332569073831,0.766198
1332569133831,0.766533
1332569193831,0.762654
1332569253831,0.756841
1332569313831,0.768020
1332569373831,0.769690
1332569433831,0.764527
1332569493831,0.766523
1332569553831,0.768014
1332569613831,0.764080
1332569673831,0.757546
1332569733831,0.762410
1332569793831,0.765940
1332582333865,0.955059
1332582393865,0.957065
1332582453865,0.954557
1332582513865,0.935360
1332582573865,0.937066
1332582633865,0.933486
1332582693865,0.932378
1332582753865,0.925859
1332582813865,0.930037
1332582873865,0.925239
1332582933865,0.916162
1332582993865,0.919316
1332583053865,0.916183
1332583113865,0.905073
1332583173865,0.905501
1332583233877,0.894829
1332583293877,0.902774
1332583353877,0.892903
1332583413877,0.895384
1332583473877,0.895612
1332583533877,0.888244
1332583593877,0.876238
1332583653877,0.875066
1332583713877,0.878618
1332583773877,0.878319
1332583833877,0.883359
1332583893877,0.863682
1332583953877,0.872309
1332584013877,0.861948
1332584073877,0.861910
1332584133877,0.869051
1332584193877,0.860201
1332584253877,0.850715
1332584313877,0.857457
1332584373877,0.848202
1332584433877,0.843175
1332584493877,0.846186
1332584553877,0.847532
1332584613877,0.839876
1332584673877,0.838533
1332584733877,0.836211
1332584793877,0.831104
1332584853877,0.823988
1332584913877,0.822278
1332584973877,0.833636
1332585033877,0.827862
1332585093877,0.816154
1332585153877,0.819613
1332585213877,0.825494
1332585273877,0.821096
1332585333877,0.818273
1332585393877,0.813913
1332585453877,0.816178
1332585513877,0.806701
1332585573877,0.809793
1332585633877,0.806705
1332585693877,0.814817
1332585753877,0.810893
1332585813877,0.811333
1332585873877,0.808365
1332585933877,0.808737
1332585993877,0.801003
1332586053877,0.803606
1332586113877,0.804752
1332586173877,0.794747
1332586233877,0.802627
1332586293877,0.794788
1332586353877,0.797877
1332586413877,0.793648
1332586473877,0.796125
1332586533877,0.779496
1332586593877,0.789089
1332586653877,0.793216
1332586713877,0.788764
1332586773877,0.791855
1332586833889,0.793874
1332586893889,0.796352
1332586953889,0.789163
1332587013889,0.786768
1332587073889,0.787157
1332587133889,0.783924
1332587193889,0.789729
1332587253889,0.784985
1332587313889,0.777390
1332587373889,0.777476
1332587433889,0.781186
1332587493889,0.778032
1332588033889,0.774631
1332588093889,0.774986
1332588153889,0.776173
1332588213889,0.776990
1332588273889,0.778112
1332588333889,0.773041
1332588393889,0.768937
1332588453889,0.773917
1332588513889,0.773933
1332588573889,0.768567
1332588633889,0.772791
1332588693889,0.772500
1332588753889,0.767574
1332588813889,0.771494
1332588873889,0.765321
1332588933889,0.760581
1332588993889,0.768624
1332589053889,0.761986
1332589113889,0.764379
1332589173889,0.767163
1332589233889,0.769435
1332589293889,0.774692
1332589353889,0.766912
1332589413889,0.766882
1332589473889,0.759477
1332589533889,0.759740
1332589593889,0.764219
1332589653889,0.759168
1332589713889,0.762722
1332589773889,0.759665
1332589833889,0.762950
1332589893889,0.756470
1332589953889,0.759460
1332590013889,0.766210
1332590073889,0.761098
1332590133889,0.759545
1332590193889,0.759963
1332590253889,0.760339
1332590313889,0.764392
1332590373889,0.763962
1332590433901,0.760299
1332590493901,0.762426
1332590553901,0.763336
1332590613901,0.769350
1332590673901,0.755685
1332590733901,0.756884
1332590793901,0.758608
1332590853901,0.757168
1332590913901,0.763762
1332590973901,0.760553
1332591033901,0.755267
1332591093901,0.766498
1332591153901,0.753174
1332591213901,0.756726
1332591273901,0.758786
1332591333901,0.759974
1332591393901,0.765309
1332591453901,0.747171
1332591513901,0.758488
1332591573901,0.760297
1332591633901,0.757634
1332591693901,0.759907
1332591753901,0.753568
1332591813901,0.748395
1332591873901,0.755951
1332591933901,0.751936
1332591993901,0.749632
1332592053901,0.754100
1332592113901,0.750053
1332592173901,0.749610
1332592233901,0.755597
1332592293901,0.758684
1332592353901,0.755324
1332592413901,0.752056
1332592473901,0.748103
1332592533901,0.754621
1332592593901,0.761272
1332592653901,0.750038
1332592713901,0.755030
1332592773901,0.755484
1332592833901,0.747342
1332592893901,0.756491
1332592953901,0.750745
1332593013901,0.747922
1332593073901,0.754226
1332593133901,0.755854
1332593193901,0.753079
1332593253901,0.754642
1332593313901,0.748237
1332593373901,0.751580
1332593433901,0.743043
1332593493901,0.747752
1332593553901,0.748591
1332593613901,0.748333
1332593673901,0.755482
1332593733901,0.746789
1332593793901,0.752818
1332593853901,0.754986
1332593913901,0.745446
1332593973901,0.754349
1332594033914,0.751182
1332594093914,0.751254
1332594153914,0.745072
1332594213914,0.754953
1332594273914,0.754005
1332594333914,0.755333
1332594393914,0.746216
1332594453914,0.750872
1332594513914,0.750758
1332594573914,0.750720
1332594633914,0.747953
1332594693914,0.748451
1332594753914,0.748394
1332594813914,0.752992
1332594873914,0.752909
1332594933914,0.749048
1332594993914,0.747497
1332595053914,0.754066
1332595113914,0.748181
1332595173914,0.752025
1332595233914,0.752483
1332595293914,0.751188
1332595353914,0.747092
1332595413914,0.754677
1332595473914,0.752533
1332595533914,0.753890
1332595593914,0.747182
1332595653914,0.755218
1332595713914,0.749495
1332595773914,0.749137
1332595833914,0.748979
1332595893914,0.753314
1332595953914,0.749944
1332596013914,0.755734
1332596073914,0.751338
1332596133914,0.749126
1332596193914,0.751950
1332596253914,0.747351
1332596313914,0.751012
1332596373914,0.751892
1332596433914,0.751878
1332596493914,0.746863
1332596553914,0.750464
1332596613914,0.752263
1332596673914,0.755332
1332596733914,0.755536
1332596793914,0.746002
1332596853914,0.751588
1332596913914,0.752262
1332596973914,0.751497
1332597033914,0.749476
1332597093914,0.750332
1332597153914,0.749715
1332597213914,0.756562
1332597273914,0.746595
1332597333914,0.744556
1332597393914,0.748111
1332597453914,0.751626
1332597513914,0.748016
1332597573914,0.755241
1332597633926,0.751781
1332597693926,0.758429
1332597753926,0.754376
1332597813926,0.749505
1332597873926,0.761566
1332597933926,0.754225
1332597993926,0.746368
1332598053926,0.750701
1332598113926,0.753613
1332598173926,0.756561
1332598233926,0.747820
1332598293926,0.752650
1332598353926,0.751888
1332598413926,0.749809
1332598473926,0.751455
1332598533926,0.746063
1332598593926,0.757486
1332598653926,0.751428
1332598713926,0.757368
1332598773926,0.750486
1332598833926,0.748733
1332598893926,0.752709
1332598953926,0.750139
1332599013926,0.753273
1332599073926,0.753364
1332599133926,0.757360
1332599193926,0.742422
1332599253926,0.750273
1332599313926,0.753500
1332599373926,0.753657
1332599433926,0.750652
1332599493926,0.752380
1332599553926,0.745667
1332599613926,0.751318
1332599673926,0.748730
1332599733926,0.754439
1332599793926,0.743787
1332599853926,0.744901
1332599913926,0.741708
1332599973926,0.749314
1332600033926,0.749071
1332600093926,0.750032
1332600153926,0.755466
1332600213926,0.750379
1332600273926,0.752701
1332600333926,0.756258
1332600393926,0.755452
1332600453926,0.746674
1332600513926,0.749221
1332600573926,0.750765
1332600633926,0.750066
1332600693926,0.752362
1332600753926,0.748173
1332600813926,0.749581
1332600873926,0.757262
1332600933926,0.744514
1332600993926,0.748615
1332601053926,0.745033
1332601113926,0.746925
1332601173926,0.750030
1332601233938,0.746607
1332601293938,0.743874
1332601353938,0.750736
1332601413938,0.750872
1332601473938,0.742320
1332601533938,0.741190
1332601593938,0.750685
1332601653938,0.749538
1332601713938,0.759434
1332601773938,0.752310
1332601833938,0.751178
1332601893938,0.747347
1332601953938,0.745326
1332602013938,0.751143
1332602073938,0.749439
1332602133938,0.749699
1332602193938,0.751769
1332602253938,0.747889
1332602313938,0.748265
1332602373938,0.750172
1332602433938,0.739617
1332602493938,0.744664
1332602553938,0.750257
1332602613938,0.751649
1332602673938,0.750522
1332602733938,0.742198
1332602793938,0.744154
1332602853938,0.750372
1332602913938,0.752347
1332602973938,0.743798
1332603033938,0.756466
1332603093938,0.751846
1332603153938,0.749426
1332603213938,0.750897
1332603273938,0.752772
1332603333938,0.746339
1332603393938,0.745931
1332603453938,0.751582
1332603513938,0.744109
1332603573938,0.745490
1332603633938,0.750987
1332603693938,0.745112
1332603753938,0.754025
1332603813938,0.748392
1332603873938,0.746721
1332603933938,0.747805
1332603993938,0.746872
1332604053938,0.744045
1332604113938,0.758094
1332604173938,0.751065
1332604233938,0.752524
1332604293938,0.742745
1332604353938,0.749460
1332604413938,0.754657
1332604473938,0.747219
1332604533938,0.752886
1332604593938,0.752743
1332604653938,0.750195
1332604713938,0.745712
1332604773938,0.747811
1332604833950,0.741222
1332604893950,0.749696
1332604953950,0.751340
1332605013950,0.753231
1332605073950,0.756889
1332605133950,0.750216
1332605193950,0.750374
1332605253950,0.747477
1332605313950,0.749440
1332605373950,0.749345
1332605433950,0.754349
1332605493950,0.747776
1332605553950,0.745813
1332605613950,0.758634
1332605673950,0.749846
1332605733950,0.755622
1332605793950,0.740529
1332605853950,0.745483
1332605913950,0.745391
1332605973950,0.750536
1332606033950,0.747910
1332606093950,0.754764
1332606153950,0.747242
1332606213950,0.744367
1332606273950,0.742627
1332606333950,0.753504
1332606393950,0.747473
1332606453950,0.750196
1332606513950,0.754486
1332606573950,0.755241
1332606633950,0.756539
1332606693950,0.754227
1332606753950,0.749536
1332606813950,0.753470
1332606873950,0.757842
1332606933950,0.753210
1332606993950,0.753838
1332607053950,0.746909
1332607113950,0.754933
1332607173950,0.749963
1332607233950,0.753719
1332607293950,0.750668
1332607353950,0.750686
1332607413950,0.748831
1332607473950,0.753249
1332607533950,0.758035
1332607593950,0.742469
1332607653950,0.748206
1332607713950,0.750569
1332607773950,0.751801
1332607833950,0.742976
1332607893950,0.751517
1332607953950,0.752765
1332608013950,0.741412
1332608073950,0.745820
1332608133950,0.746389
1332608193950,0.752880
1332608253950,0.755629
1332608313950,0.745114
1332608373950,0.747314
1332608433962,0.739746
1332608493962,0.751311
1332608553962,0.743519
1332608613962,0.746984
1332608673962,0.740696
1332608733962,0.741166
1332608793962,0.743019
1332608853962,0.753945
1332608913962,0.749166
1332608973962,0.750623
1332609033962,0.747768
1332609093962,0.742680
1332609153962,0.752377
1332609213962,0.749374
1332609273962,0.748350
1332609333962,0.749608
1332609393962,0.750684
1332609453962,0.751423
1332609513962,0.748562
1332609573962,0.739116
1332609633962,0.744401
1332609693962,0.747045
1332609753962,0.754147
1332609813962,0.748185
1332609873962,0.748100
1332609933962,0.745350
1332609993962,0.747720
1332610053962,0.745960
1332610113962,0.748735
1332610173962,0.745944
1332610233962,0.749507
1332610293962,0.749337
1332610353962,0.748237
1332610413962,0.751544
1332610473962,0.745706
1332610533962,0.749717
1332610593962,0.752578
1332610653962,0.748055
1332610713962,0.746889
1332610773962,0.749056
1332610833962,0.753548
1332610893962,0.748960
1332610953962,0.754763
1332611013962,0.747763
1332611073962,0.749081
1332611133962,0.751365
1332611193962,0.758511
1332611253962,0.752012
1332611313962,0.751424
1332611373962,0.758240
1332611433962,0.756094
1332611493962,0.750406
1332611553962,0.753033
1332611613962,0.759223
1332611673962,0.745585
1332611733962,0.755924
1332611793962,0.748690
1332611853962,0.750879
1332611913962,0.753750
1332611973962,0.748055
1332612033974,0.748947
1332612093974,0.751505
1332612153974,0.751331
1332612213974,0.753183
1332612273974,0.751102
1332612333974,0.753905
1332612393974,0.755433
1332612453974,0.756834
1332612513974,0.755594
1332612573974,0.751840
1332612633974,0.757108
1332612693974,0.757780
1332612753974,0.758771
1332612813974,0.757435
1332612873974,0.756044
1332612933974,0.753152
1332612993974,0.761745
1332613053974,0.752904
1332613113974,0.758241
1332613173974,0.752958
1332613233974,0.758736
1332613293974,0.753890
1332613353974,0.752212
1332613413974,0.747625
1332613473974,0.756216
1332613533974,0.756959
1332613593974,0.750095
1332613653974,0.749711
1332613713974,0.760585
1332613773974,0.760256
1332613833974,0.749665
1332613893974,0.759092
1332613953974,0.756041
1332614013974,0.749950
1332614073974,0.750119
1332614133974,0.756838
1332614193974,0.754897
1332614253974,0.755438
1332614313974,0.750259
1332614373974,0.759211
1332614433974,0.759605
1332614493974,0.764545
1332614553974,0.764123
1332614613974,0.754303
1332614673974,0.752701
1332614733974,0.754129
1332614793974,0.754687
1332614853974,0.766627
1332614913974,0.757543
1332614973974,0.756164
1332615033974,0.760721
1332615093974,0.763506
1332615153974,0.758564
1332615213974,0.758025
1332615273974,0.755164
1332615333974,0.766186
1332615393974,0.755598
1332615453974,0.762091
1332615513974,0.763483
1332615573974,0.760222
1332615633986,0.756276
1332615693985,0.764076
1332615753985,0.759255
1332615813985,0.759703
1332615873985,0.759925
1332615933985,0.758633
1332615993985,0.760074
1332616053985,0.759501
1332616113985,0.760385
1332616173985,0.759307
1332616233985,0.761183
1332616293985,0.756626
1332616353985,0.755702
1332616413985,0.761499
1332616473985,0.754520
1332616533985,0.756517
1332616593985,0.764792
1332616653985,0.766673
1332616713985,0.763056
1332616773985,0.760994
1332616833985,0.760750
1332616893986,0.756075
1332616953986,0.765864
1332617013986,0.757023
1332617073985,0.751573
1332617133985,0.756534
1332617193985,0.757350
1332617253985,0.752050
1332617313985,0.763413
1332617373985,0.756811
1332617433985,0.757297
1332617493985,0.755161
1332617553985,0.747990
1332617613985,0.749967
1332617673985,0.756243
1332617733985,0.756232
1332617793985,0.753882
1332617853985,0.755852
1332617913985,0.753524
1332617973985,0.761146
1332618033985,0.754433
1332618093985,0.753797
1332618153985,0.756774
1332618213985,0.754347
1332618273986,0.756542
1332618333986,0.746217
1332618393985,0.752909
1332618453985,0.747751
1332618513985,0.747059
1332618573985,0.751290
1332618633985,0.757029
1332618693985,0.752017
1332618753985,0.758642
1332618813985,0.749742
1332618873985,0.756343
1332618933985,0.752326
1332618993985,0.750793
1332619053985,0.752736
1332619113985,0.751795
1332619173985,0.750033
1332619233997,0.758036
1332619293997,0.746300
1332619353997,0.750252
1332619413997,0.751314
1332619473997,0.748066
1332619533997,0.759514
1332619593997,0.744069
1332619653997,0.752793
1332619713997,0.756654
1332619773997,0.753228
1332619833997,0.748123
1332619893997,0.755249
1332619953997,0.753942
1332620013997,0.745331
1332620073997,0.750373
1332620133997,0.755805
1332620193997,0.745261
1332620253997,0.751030
1332620313997,0.749877
1332620373997,0.747491
1332620433997,0.750309
1332620493997,0.745114
1332620553997,0.744979
1332620613997,0.749347
1332620673997,0.742553
1332620733997,0.753190
1332620793997,0.751042
1332620853997,0.750161
1332620913997,0.750384
1332620973997,0.751886
1332621033997,0.742578
1332621093997,0.756082
1332621153997,0.744997
1332621213997,0.744816
1332621273997,0.752971
1332621333997,0.751154
1332621393997,0.752045
1332621453997,0.755235
1332621513997,0.754533
1332621573997,0.752883
1332621633997,0.749815
1332621693997,0.750893
1332621753997,0.756951
1332621813997,0.756114
1332621873997,0.753804
1332621933997,0.760983
1332621993997,0.753611
1332622053997,0.752205
1332622113997,0.751297
1332622173997,0.758214
1332622233997,0.758451
1332622293997,0.751334
1332622353997,0.756850
1332622413997,0.758875
1332622473997,0.755205
1332622533997,0.762017
1332622593997,0.755760
1332622653997,0.752505
1332622713997,0.751559